Home > Weather > Georgetown > Past weeks

Flag for Guyana Weather for the Past 2 Weeks in Georgetown, Guyana

Now
77 °F

Rain showers. Passing clouds.


Feels Like: 78 °F
Forecast: 75 / 84 °F
Wind: No wind

Location: Georgetown/Cheddi Jagan International Airport

Current Time: Feb 10, 2016 at 3:24:49 AM

Latest Report: Feb 10, 2016 at 2:00 AM


Visibility: 6 mi

Pressure: 29.92 "Hg

Humidity: 94%

Dew point: 75 °F

Location of GeorgetownLocation

Historic Weather in Georgetown — Graph

°F

Georgetown Temperature Yesterday

Maximum temperature yesterday: 84 °F (at 12:00 PM)
Minimum temperature yesterday: 75 °F (at 5:00 AM)
Average temperature yesterday: 80 °F

High & Low Weather Summary for the Past Weeks

 TemperatureHumidityPressure
High91 °F (Feb 2, 12:00 PM)100% (Jan 26, 3:00 AM)30.04 "Hg (Jan 26, 3:00 AM)
Low36 °F (Feb 4, 5:00 AM)44% (Feb 2, 12:00 PM)29.83 "Hg (Feb 2, 3:00 PM)
Average78 °F84%29.93 "Hg
* Reported Jan 26 3:00 AM — Feb 10 2:00 AM, Georgetown, Weather by CustomWeather, © 2016

Note: Actual official high and low records may vary slightly from our data, if they occured in-between our weather recording intervals... More about our weather records

Advertising

Georgetown Weather History for the Previous 24 Hours

 ConditionsComfort  
Time TempWeatherWind HumidityBarometerVisibility
2:00 AM
Wed, Feb 10
77 °FRain showers. Passing clouds.No wind94%29.92 "Hg6 mi
12:00 AM75 °FPartly cloudy.5 mph100%29.95 "HgN/A
11:00 PM
Tue, Feb 9
77 °FPassing clouds.5 mph94%29.98 "HgN/A
10:00 PM77 °FPassing clouds.9 mph94%29.98 "HgN/A
9:00 PM77 °FRain showers. Passing clouds.7 mph94%29.98 "Hg5 mi
8:00 PM77 °FSprinkles. Partly cloudy.5 mph94%29.95 "HgN/A
7:00 PM77 °FPartly cloudy.9 mph94%29.95 "HgN/A
6:00 PM79 °FLight rain. Broken clouds.7 mph89%29.92 "Hg6 mi
5:00 PM79 °FSprinkles. Broken clouds.12 mph89%29.92 "Hg6 mi
4:00 PM79 °FSprinkles. Partly sunny.16 mph89%29.92 "HgN/A
3:00 PM84 °FBroken clouds.16 mph79%29.89 "HgN/A
2:00 PM84 °FSprinkles. Scattered clouds.16 mph79%29.92 "Hg6 mi
1:00 PM82 °FSprinkles. Partly sunny.18 mph79%29.95 "HgN/A
12:00 PM84 °FBroken clouds.14 mph79%29.98 "HgN/A
11:00 AM82 °FRain showers. Partly sunny.7 mph84%30.01 "Hg4 mi
10:00 AM82 °FSprinkles. Broken clouds.16 mph79%30.01 "HgN/A
9:00 AM82 °FScattered clouds.9 mph79%29.98 "HgN/A
8:00 AM81 °FPassing clouds.9 mph84%29.98 "HgN/A
7:00 AM77 °FPassing clouds.7 mph94%29.95 "HgN/A
6:00 AM75 °FPartly cloudy.7 mph100%29.92 "HgN/A
5:00 AM75 °FPartly cloudy.12 mph94%29.89 "HgN/A
Weather by CustomWeather, © 2016

See weather overviewHow to use our weather pages